Location: Laas
(43.4693°N, 0.3073°E)
Time: 15:46:26
(UTC+00:00)

H-2A R/B - Pass Details

Date: 25 October 2020
Orbit: 577 x 656 km, 98.5° (Epoch: 23 November)

Event Time Altitude Azimuth Distance (km) Brightness Sun altitude
Rises 17:32:33 0° 6° (N) 2,854 5.3 -6.7°
Reaches altitude 10° 17:34:50 10° 359° (N) 1,935 4.5 -7.1°
Maximum altitude 17:38:43 39° 291° (WNW) 891 3.5 -7.8°
Drops below altitude 10° 17:42:32 10° 222° (SW) 1,892 5.4 -8.5°
Sets 17:44:45 0° 214° (SW) 2,782 6.1 -8.9°
